This is the latest recevied weather packets stored in our database for station/object N9BID. If no packets are shown the sender has not sent any weather packets the latest 10 day(s).
| Time | Temp. | Humidity | Pressure | Rain* | Wind** | Luminosity | Snow |
|---|---|---|---|---|---|---|---|
| 1788535706 | 25° C | 95% | 1012.7 hPa | 0 mm | - | 435 W/m² | - |
| 1788535401 | 24.44° C | 97% | 1012.8 hPa | 0 mm | - | 488 W/m² | - |
| 1788535096 | 23.89° C | 97% | 1012.9 hPa | 0 mm | - | 191 W/m² | - |
| 1788534795 | 23.33° C | 98% | 1012.9 hPa | 0 mm | - | 325 W/m² | - |
| 1788534491 | 22.78° C | 99% | 1012.8 hPa | 0 mm | - | 233 W/m² | - |
| 1788534186 | 23.33° C | 99% | 1012.6 hPa | 0 mm | - | 312 W/m² | - |
| 1788533884 | 22.78° C | 99% | 1012.7 hPa | 0 mm | - | 208 W/m² | - |
| 1788533580 | 22.22° C | 99% | 1012.6 hPa | 0 mm | - | 214 W/m² | - |
| 1788533275 | 22.22° C | 99% | 1012.9 hPa | 0 mm | - | 173 W/m² | - |
| 1788532971 | 21.67° C | 99% | 1013 hPa | 0 mm | - | 125 W/m² | - |
| 1788532666 | 21.67° C | 99% | 1012.9 hPa | 0 mm | - | 132 W/m² | - |
| 1788532363 | 21.67° C | 99% | 1012.6 hPa | 0 mm | - | 117 W/m² | - |
| 1788532059 | 21.67° C | 99% | 1012.7 hPa | 0 mm | - | 132 W/m² | - |
| 1788531755 | 21.67° C | 99% | 1012.7 hPa | 0 mm | - | 119 W/m² | - |
| 1788531454 | 21.67° C | 99% | 1012.6 hPa | 0 mm | - | 119 W/m² | - |
| 1788531150 | 21.11° C | 99% | 1012.6 hPa | 0 mm | - | 118 W/m² | - |
| 1788530845 | 21.11° C | 99% | 1012.5 hPa | 0 mm | - | 131 W/m² | - |
| 1788530541 | 21.11° C | 99% | 1012.6 hPa | 0 mm | - | 128 W/m² | - |
| 1788530239 | 21.11° C | 99% | 1012.8 hPa | 0 mm | - | 78 W/m² | - |
| 1788529935 | 21.11° C | 99% | 1012.8 hPa | 0 mm | - | 75 W/m² | - |
| 1788529631 | 21.11° C | 99% | 1012.9 hPa | 0 mm | - | 44 W/m² | - |
| 1788529330 | 21.11° C | 99% | 1012.8 hPa | 0 mm | - | 36 W/m² | - |
| 1788529025 | 21.11° C | 99% | 1012.8 hPa | 0 mm | - | 45 W/m² | - |
| 1788528721 | 20.56° C | 99% | 1012.8 hPa | 0 mm | - | 82 W/m² | - |
| 1788528421 | 20.56° C | 99% | 1012.8 hPa | 0 mm | - | 89 W/m² | - |
* Rain latest hour (hover to see other rain measurements)
** Current wind speed in m/s (hover to see current wind gust speed)